Weather History for Guymon, OK

Change the Weather History Date:

Tuesday, April 17, 2012

  Actual Average Record
Temperature  
Mean Temperature 58 °F 56 °F  
Max Temperature 79 °F 71 °F 95 °F (2006)
Min Temperature 37 °F 41 °F 27 °F (1999)
Degree Days  
Heating Degree Days 7 10  
Month to date heating degree days 122 205  
Since 1 July heating degree days 3720 4253  
Cooling Degree Days 0 0  
Month to date cooling degree days 11 0  
Year to date cooling degree days 38 2  
Growing Degree Days 8 (Base 50)    
Moisture  
Dew Point 40 °F    
Average Humidity 55    
Maximum Humidity 92    
Minimum Humidity 17    
Precipitation  
Precipitation 0.00 in 0.05 in 0.67 in (2007)
Month to date precipitation 1.04 0.81  
Year to date precipitation 2.74 3.11  
Snow  
Snow 0.00 in - - ()
Month to date snowfall 0.0  
Since 1 July snowfall 9.1  
Snow Depth 0.00 in    
Sea Level Pressure  
Sea Level Pressure 30.08 in    
Wind  
Wind Speed 11 mph (SSW)    
Max Wind Speed 24 mph    
Max Gust Speed 32 mph    
Visibility 10 miles    
Events      
T = Trace of Precipitation, MM = Missing Value Source: NWS Daily Summary

Daily Weather History Graph

Daily Weather History Graph

Search for Another Location

Airport:

Trip Planner

Search our weather history database for the weather conditions in past years. The results will help you decide how hot, cold, wet, or windy it might be!

Date:

Astronomy

Apr. 17, 2012 Rise Set
Actual Time 7:08 AM CDT 8:22 PM CDT
Civil Twilight 6:41 AM CDT 8:49 PM CDT
Nautical Twilight 6:10 AM CDT 9:21 PM CDT
Astronomical Twilight 5:36 AM CDT 9:55 PM CDT
Moon 5:02 AM CDT (4/17) 5:21 PM CDT (4/17)
Length of Visible Light 14h 07m
Length of Day
13h 13m
Waning Crescent, 12% of the Moon is Illuminated
Apr 17
Waning Crescent
Apr 21
New
Apr 29
First Quarter
May 5
Full
May 12
Last Quarter

Hourly Weather History & Observations

Time (CDT) Temp. Windchill Dew Point Humidity Pressure Visibility Wind Dir Wind Speed Gust Speed Precip Events Conditions
12:53 AM 45.0 °F 42.6 °F 41.0 °F 86% 30.16 in 10.0 mi South 4.6 mph - N/A   Clear
1:53 AM 44.1 °F - 41.0 °F 89% 30.17 in 10.0 mi Calm Calm - N/A   Clear
2:53 AM 43.0 °F - 39.9 °F 89% 30.16 in 10.0 mi Calm Calm - N/A   Clear
3:53 AM 41.0 °F 37.1 °F 37.9 °F 89% 30.17 in 10.0 mi WSW 5.8 mph - N/A   Clear
4:53 AM 41.0 °F 39.0 °F 37.9 °F 89% 30.18 in 10.0 mi West 3.5 mph - N/A   Clear
5:53 AM 39.9 °F 37.8 °F 37.9 °F 93% 30.20 in 10.0 mi SW 3.5 mph - N/A   Clear
6:53 AM 37.9 °F 34.4 °F 36.0 °F 93% 30.21 in 10.0 mi SW 4.6 mph - N/A   Clear
7:53 AM 39.0 °F - 37.0 °F 93% 30.23 in 10.0 mi Calm Calm - N/A   Clear
8:53 AM 46.0 °F 43.9 °F 43.0 °F 89% 30.23 in 10.0 mi South 4.6 mph - N/A   Clear
9:53 AM 53.1 °F - 46.0 °F 77% 30.22 in 10.0 mi South 8.1 mph - N/A   Clear
10:53 AM 57.9 °F - 45.0 °F 62% 30.20 in 10.0 mi South 15.0 mph 20.7 mph N/A   Clear
11:53 AM 63.0 °F - 45.0 °F 52% 30.17 in 10.0 mi SSW 17.3 mph 25.3 mph N/A   Clear
12:53 PM 68.0 °F - 44.1 °F 42% 30.12 in 10.0 mi South 17.3 mph 26.5 mph N/A   Clear
1:53 PM 71.1 °F - 44.1 °F 38% 30.08 in 10.0 mi South 18.4 mph 27.6 mph N/A   Clear
2:53 PM 73.9 °F - 42.1 °F 32% 30.04 in 10.0 mi South 15.0 mph 25.3 mph N/A   Clear
3:53 PM 77.0 °F - 39.9 °F 26% 29.99 in 10.0 mi SSW 21.9 mph 28.8 mph N/A   Clear
4:53 PM 77.0 °F - 37.9 °F 24% 29.95 in 10.0 mi South 13.8 mph 31.1 mph N/A   Clear
5:53 PM 79.0 °F - 30.9 °F 17% 29.93 in 10.0 mi SSW 15.0 mph 23.0 mph N/A   Clear
6:53 PM 78.1 °F - 32.0 °F 19% 29.92 in 10.0 mi SSW 13.8 mph - N/A   Clear
7:53 PM 72.0 °F - 35.1 °F 26% 29.93 in 10.0 mi South 8.1 mph - N/A   Clear
8:53 PM 66.0 °F - 44.1 °F 45% 29.94 in 10.0 mi SSE 15.0 mph - N/A   Clear
9:53 PM 63.0 °F - 43.0 °F 48% 29.94 in 10.0 mi SSE 18.4 mph 26.5 mph N/A   Clear
10:53 PM 62.1 °F - 42.1 °F 48% 29.92 in 10.0 mi South 18.4 mph 26.5 mph N/A   Clear
11:53 PM 59.0 °F - 42.1 °F 53% 29.92 in 10.0 mi South 18.4 mph - N/A   Clear